Ellington Field, TX

12:16 PM CDT on April 28, 2017 (GMT -0500)
Ellington

Weather History for KEFD - January, 2014

Change the Weather History Date:

Monday, January 6, 2014

  Actual Average Record
Temperature  
Mean Temperature 32 °F -  
Max Temperature 35 °F 62 °F 75 °F (2008)
Min Temperature 28 °F 44 °F 28 °F (2014)
Degree Days  
Heating Degree Days 34    
Moisture  
Dew Point 12 °F    
Average Humidity 44    
Maximum Humidity 64    
Minimum Humidity 32    
Precipitation  
Precipitation 0.00 in - - ()
Sea Level Pressure  
Sea Level Pressure 30.57 in    
Wind  
Wind Speed 14 mph (NNW)    
Max Wind Speed 21 mph    
Max Gust Speed 22 mph    
Visibility 10 miles    
Events      
Averages and records for this station are not official NWS values.
T = Trace of Precipitation, MM = Missing Value Source: NWS Daily Summary

Daily Weather History Graph

Daily Weather History Graph

Search for Another Location

Airport or City:

Trip Planner

Search our weather history database for the weather conditions in past years. The results will help you decide how hot, cold, wet, or windy it might be!

Date:

Astronomy

Jan. 06, 2014 Rise Set
Actual Time 7:16 AM CST 5:36 PM CST
Civil Twilight 6:50 AM CST 6:02 PM CST
Nautical Twilight 6:21 AM CST 6:32 PM CST
Astronomical Twilight 5:52 AM CST 7:01 PM CST
Moon 11:01 AM CST (1/6) 11:39 PM CST (1/6)
Length of Visible Light 11h 12m
Length of Day
10h 20m
Waxing Crescent, 35% of the Moon is Illuminated
Jan 6
Waxing Crescent
Jan 7
First Quarter
Jan 15
Full
Jan 23
Last Quarter
Jan 30
New

Hourly Weather History & Observations

Time (CST) Temp. Windchill Dew Point Humidity Pressure Visibility Wind Dir Wind Speed Gust Speed Precip Events Conditions
12:50 AM 35.6 °F 24.5 °F 19.4 °F 52% 30.40 in 10.0 mi NNW 20.7 mph - N/A   Scattered Clouds
1:50 AM 35.6 °F 27.5 °F 19.4 °F 52% 30.42 in 10.0 mi NNW 11.5 mph - N/A   Scattered Clouds
2:50 AM 32.0 °F 23.0 °F 19.4 °F 60% 30.04 in 10.0 mi NNW 11.5 mph - N/A   Scattered Clouds
3:50 AM 32.0 °F 22.1 °F 19.4 °F 60% 30.45 in 10.0 mi NNW 13.8 mph - N/A   Scattered Clouds
4:50 AM 30.2 °F 19.3 °F 19.4 °F 64% 30.48 in 10.0 mi North 15.0 mph - N/A   Scattered Clouds
5:50 AM 30.2 °F 19.3 °F 15.8 °F 55% 30.50 in 10.0 mi NNW 15.0 mph - N/A   Scattered Clouds
6:50 AM 30.2 °F 21.3 °F 15.8 °F 55% 30.53 in 10.0 mi NNW 10.4 mph - N/A   Scattered Clouds
7:50 AM 28.4 °F 18.0 °F 14.0 °F 55% 30.60 in 10.0 mi NNW 12.7 mph - N/A   Scattered Clouds
8:50 AM 30.2 °F 18.1 °F 14.0 °F 51% 30.63 in 10.0 mi North 18.4 mph - N/A   Overcast
9:50 AM 30.2 °F 19.3 °F 12.2 °F 47% 30.67 in 10.0 mi North 15.0 mph - N/A   Overcast
10:50 AM 30.2 °F 18.9 °F 10.4 °F 44% 30.69 in 10.0 mi North 16.1 mph 21.9 mph N/A   Overcast
11:50 AM 32.0 °F 23.0 °F 10.4 °F 41% 30.66 in 10.0 mi North 11.5 mph - N/A   Overcast
12:50 PM 33.8 °F 23.9 °F 12.2 °F 41% 30.63 in 10.0 mi North 15.0 mph - N/A   Overcast
1:50 PM 35.6 °F 27.5 °F 10.4 °F 35% 30.62 in 10.0 mi North 11.5 mph - N/A   Overcast
2:50 PM 35.6 °F 26.2 °F 8.6 °F 33% 30.62 in 10.0 mi NNW 15.0 mph - N/A   Overcast
3:50 PM 35.6 °F 27.5 °F 8.6 °F 33% 30.64 in 10.0 mi NW 11.5 mph - N/A   Overcast
4:50 PM 35.6 °F 28.0 °F 8.6 °F 33% 30.64 in 10.0 mi NNW 10.4 mph - N/A   Overcast
6:50 PM 32.0 °F 24.2 °F 6.8 °F 35% 30.66 in 10.0 mi NW 9.2 mph - N/A   Overcast
7:50 PM 32.0 °F 24.2 °F 5.0 °F 32% 30.67 in 10.0 mi NNW 9.2 mph - N/A   Overcast
8:50 PM 32.0 °F 24.8 °F 5.0 °F 32% 30.69 in 10.0 mi NNW 8.1 mph - N/A   Overcast
10:50 PM 30.2 °F 23.4 °F 5.0 °F 34% 30.70 in 10.0 mi NNW 6.9 mph - N/A   Scattered Clouds
11:50 PM 30.2 °F 20.8 °F 5.0 °F 34% 30.67 in 10.0 mi North 11.5 mph - N/A   Scattered Clouds